Regional Weather Roundup
Issued by NWS Newport/Morehead, NC

Current Version | Previous Version | Text Only | Print | Product List | Glossary Off
Versions: 1 2 3 4 5 6 7 8 9 10 11 12 13 14 15 16 17 18 19 20 21 22 23 24 25 26 27 28 29 30 31 32 33 34 35 36 37 38 39 40 41 42 43
000 ASUS42 KMHX 161626 RWRMHX WEATHER ROUNDUP FOR EASTERN NORTH CAROLINA NATIONAL WEATHER SERVICE NEWPORT/MOREHEAD CITY NC 1200 PM EDT WED AUG 16 2017 NOTE: "FAIR" INDICATES FEW OR NO CLOUDS BELOW 12,000 FEET WITH NO SIGNIFICANT WEATHER AND/OR OBSTRUCTIONS TO VISIBILITY NCZ015>017-031-032-045>047-102-103-161700- NORTH COAST CITY SKY/WX TMP DP RH WIND PRES REMARKS EDENTON CLOUDY 85 76 73 CALM 30.01S ELIZABETH CITY PTSUNNY 85 78 80 N7 30.00S KITTY HAWK MOSUNNY 80 74 80 CALM 29.99S MANTEO MOSUNNY 82 74 78 N8 30.00S $$ NCZ045>047-081-094-103-104-161700- CENTRAL COAST CITY SKY/WX TMP DP RH WIND PRES REMARKS FRISCO CLOUDY 84 78 82 VRB5 29.99S $$ NCZ095-097-098-100-101-161700- SOUTHERN COAST CITY SKY/WX TMP DP RH WIND PRES REMARKS BEAUFORT MOSUNNY 86 78 77 NW7 29.99S CEDAR ISLAND NOT AVBL JACKSONVILLE PTSUNNY 82 77 84 N6 30.01R PINEY ISLAND PTSUNNY N/A N/A N/A NE10 29.99S WILMINGTON MOSUNNY 88 75 65 NW3 30.01R $$ NCZ011>013-027>030-043-044-078>080-089-090>093-098-161700- COASTAL PLAIN CITY SKY/WX TMP DP RH WIND PRES REMARKS AHOSKIE N/A 82 74 77 N3 30.02S CLINTON PTSUNNY 87 75 66 CALM 30.02S ELIZABETHTOWN NOT AVBL GOLDSBORO PTSUNNY 81 79 94 E7 30.02S GREENVILLE MOSUNNY 82 75 78 CALM 30.03S HAVELOCK PTSUNNY 87 77 72 VRB6 30.01F KENANSVILLE PTSUNNY 86 75 70 N5 30.02F KINSTON NOT AVBL NEW BERN CLOUDY 82 77 84 N6 30.02S RICHLANDS PTSUNNY 83 76 79 NE7 30.02S ROCKY MOUNT CLOUDY 79 75 87 N5 30.04R WASHINGTON MOSUNNY 82 75 78 NE5 30.01S WHITEVILLE MOSUNNY 88 76 66 NE3 30.01S $$ AMZ130-135-150-152-154-156-158-170-250-252-270-ANZ085-086-088-633-658-670-161700- MARINE OBSERVATIONS STATION/POSITION TIME TEMP WIND PRES WAVE SWELL AIR SEA DIR/SP/G HT/PER HT/PER (UTC) (F) (DEG/KT/KT) (MB) (FT/S) (FT/S) CHESAPEAKE LIGHT NOT AVBL 64 E VA BEACH 1550 77 79 20/ 6/ 8 1016.1 3/ 9 3/ 9 DUCK 1600 78 78 20/ 8/ 9 1015.5 2 E DUCK 1600 79 N/A 3/ 9 2/11 OREGON INLET 1600 80 82 10/ 7/ 10 1015.7 13E OREGON INLT 1548 79 N/A 3/ 8 2/ 8 HATTERAS CG 1600 81 83 20/ 10/ 12 1015.4 DIAMOND BUOY 1550 80 83 20/ 8/ 8 1015.2 3/ 9 3/ 9 CAPE LOOKOUT 1600 83 70/ 4/ 5 1015.1 BEAUFORT LAB 1600 85 82 340/ 5/ 7 1014.9 30 SE NEW RVR IN 1608 80 83 40/ 8/ 10 1015.9 30 SE NEW RVR IN 1613 83 N/A 3/ 5 27 SE WRIGHTSVLE 1608 82 83 30/ 6/ 10 1016.1 5 SE WRIGHTSVLE 1608 82 83 100/ 4/ 8 1016.0 225 S CAPE HAT 1550 84 84 240/ 12/ 14 1016.8 5/ 6 3/ 8 41 SE CHARLESTON 1610 83 84 270/ 6/ 8 1016.3 $$

USA.gov is the U.S. government's official web portal to all federal, state and local government web resources and services.